ION SCV002 LAURENTIUS

operational
NORAD ID: 47504 Int'l Des: 2021-006 Owner: DORBIT Country: I
LEOCIRCULARRETROGRADESSO

ION SCV002 LAURENTIUSについて

説明を読み込み中...

リアルタイム位置

3D地球を読み込み中...

次回通過

高度履歴

Altitude vs Time

uPlot chart will show altitude changes over time

軌道要素

1 47504U 21006CV 26063.48028002 .00021182 00000-0 50885-3 0 9993
2 47504 97.1141 67.8659 0013453 130.6349 229.6071 15.41265164283889
Epoch: Mar 4, 2026 • Age: 19 hours

現在のステータス

高度 478.2 km
速度 7.62 km/s
衛星直下点 -80.61°S, 29.94°E
打ち上げ日 Jan 24, 2021
運用期間 5.1 years
タイプ other

技術仕様

分類 Payload
質量 150.00 kg
乾燥質量 150.00 kg
総質量 220.00 kg
長さ 0.40 m
直径 0.40 m
スパン 0.40 m
形状 Box
製造者 DORBIT
バスタイプ ION-SC
フェーズステータス In Orbit
所有者/国 DORBIT/I

大規模コンステレーション

Loading constellations...